Regional Weather Roundup
Issued by NWS New Orleans/Baton Rouge, LA

Home | Current Version | Previous Version | Text Only | Print | Product List | Glossary On
Versions: 1 2 3 4 5 6 7 8 9 10 11 12 13 14 15 16 17 18 19 20 21 22 23 24 25 26 27 28 29 30 31 32 33 34 35 36 37 38 39 40 41 42 43 44 45 46 47 48 49 50
000
ASUS44 KLIX 101310
RWRLIX
NEW ORLEANS REGIONAL WEATHER ROUNDUP
NATIONAL WEATHER SERVICE NEW ORLEANS LA
700 AM CST WED FEB 10 2016

NOTE: "FAIR" INDICATES FEW OR NO CLOUDS BELOW 12,000 FEET WITH NO
      SIGNIFICANT WEATHER AND/OR OBSTRUCTIONS TO VISIBILITY.
      SKY/WX - SKY CONDITION AND SIGNIFICANT WEATHER.
      TMP - AIR TEMPERATURE.     DP    - DEWPOINT TEMPERATURE.
      RH  - RELATIVE HUMIDITY.   PRES  - PRESSURE.
      HI  - HEAT INDEX.          WCI   - WIND CHILL INDEX.

*  THESE STATIONS ARE NOT NWS OR FAA STATIONS AND ARE NOT UNDER
   NWS QUALITY CONTROL.

LAZ038-040-048-061>063-065>067-069-101400-
SOUTHEAST LOUISIANA

CITY           SKY/WX    TMP DP  RH WIND       PRES   REMARKS
N.O. AUDUBON     N/A     42  27  56 MISG        N/A
N.O. INTL ARPT CLEAR     42  22  44 N7        30.33R
N.O. LAKEFRONT CLEAR     42  25  50 N9        30.34R
N.O. DOWNTOWN*   N/A     43  25  49 MISG      30.33S
RESERVE*         N/A     40  22  49 N3        30.33R
SLIDELL        CLEAR     29  25  85 CALM      30.33R
BATON ROUGE    CLEAR     35  23  61 N9        30.33R WCI  28
BOOTHVILLE     CLEAR     44  32  62 N7        30.33
BELLE CHASSE   CLEAR     38  27  64 NE5       30.33R WCI  34
BOGALUSA*        N/A     28  25  87 CALM      30.34S
GALLIANO*      SUNNY    N/A N/A N/A N3        30.33R
NEW ROADS*       N/A     37  25  60 CALM      30.33S
GONZALES*        N/A     35  29  82 CALM      30.33R
HAMMOND*       CLEAR     30  25  80 CALM      30.33R
HOUMA*         CLEAR     39  25  56 CALM      30.33R
PORT FOURCHON* SUNNY     43  32  65 N7        30.34R

$$

MSZ070-080>082-101400-
SOUTHERN MISSISSIPPI

CITY           SKY/WX    TMP DP  RH WIND       PRES   REMARKS
MCCOMB         CLEAR     27  21  78 CALM      30.31S
GULFPORT       CLEAR     29  23  78 N3        30.33R
BILOXI         CLEAR     32  23  69 N1        30.33R
PASCAGOULA     CLEAR     27  25  92 CALM      30.33R
STENNIS ARPT*  CLEAR     27  21  80 CALM      30.34

$$

COASTAL OBSERVATIONS
LAKE AND NEARSHORE STATIONS

STATION/POSITION TIME  TEMP    WIND        PRES    WAVE
                       AIR SEA DIR/SP/G            HT/PER
                 (UTC) (F)     (DEG/KT/KT) (MB)    (FT/S)
PASCAGOULA       1200   33     360/  6/  7 1025.7
WAVELAND YACHT   1200   38 49   10/  7/ 10 1026.3
GRAND ISLE       1200   47 54  340/ 11/ 16 1026.1
NEW CANAL        1200   45 50   10/ 12/ 14 1025.7
SHELL BEACH      1200   44 50   10/ 13/ 15 1025.7

OFFSHORE STATIONS

STATION/POSITION TIME  TEMP    WIND        PRES    WAVE
                       AIR SEA DIR/SP/G            HT/PER
                 (UTC) (F)     (DEG/KT/KT) (MB)    (FT/S)

$$




USA.gov is the U.S. government's official web portal to all federal, state and local government web resources and services.